TimeCST,TemperatureF,Dew PointF,Humidity,Sea Level PressureIn,VisibilityMPH,Wind Direction,Wind SpeedMPH,Gust SpeedMPH,PrecipitationIn,Events,Conditions,WindDirDegrees,DateUTC
12:15 AM,17.6,8.6,68,30.33,10.0,Calm,Calm,-,N/A,,Clear,0,2013-11-28 06:15:00
12:35 AM,15.8,8.6,73,30.32,10.0,SSE,5.8,-,N/A,,Clear,160,2013-11-28 06:35:00
12:55 AM,15.8,10.4,79,30.32,10.0,Calm,Calm,-,N/A,,Clear,0,2013-11-28 06:55:00
1:15 AM,15.8,8.6,73,30.32,10.0,SSW,4.6,-,N/A,,Clear,200,2013-11-28 07:15:00
1:35 AM,17.6,8.6,68,30.32,10.0,South,6.9,-,N/A,,Clear,180,2013-11-28 07:35:00
1:55 AM,17.6,8.6,68,30.32,10.0,South,6.9,-,N/A,,Clear,170,2013-11-28 07:55:00
2:15 AM,17.6,8.6,68,30.31,10.0,SSE,6.9,-,N/A,,Clear,160,2013-11-28 08:15:00
2:35 AM,17.6,8.6,68,30.30,10.0,South,6.9,-,N/A,,Clear,170,2013-11-28 08:35:00
2:55 AM,17.6,10.4,73,30.30,10.0,South,8.1,-,N/A,,Clear,180,2013-11-28 08:55:00
3:15 AM,17.6,10.4,73,30.30,10.0,SSW,5.8,-,N/A,,Clear,200,2013-11-28 09:15:00
3:35 AM,19.4,10.4,68,30.30,10.0,SSW,5.8,-,N/A,,Clear,200,2013-11-28 09:35:00
3:55 AM,19.4,10.4,68,30.30,10.0,South,4.6,-,N/A,,Clear,180,2013-11-28 09:55:00
4:15 AM,19.4,10.4,68,30.31,10.0,Calm,Calm,-,N/A,,Clear,0,2013-11-28 10:15:00
4:35 AM,19.4,10.4,68,30.31,10.0,South,3.5,-,N/A,,Clear,180,2013-11-28 10:35:00
4:55 AM,19.4,10.4,68,30.30,10.0,SSE,5.8,-,N/A,,Clear,150,2013-11-28 10:55:00
5:15 AM,19.4,10.4,68,30.30,10.0,South,6.9,-,N/A,,Clear,170,2013-11-28 11:15:00
5:35 AM,19.4,10.4,68,30.30,10.0,SSE,6.9,-,N/A,,Clear,160,2013-11-28 11:35:00
5:55 AM,21.2,10.4,63,30.31,10.0,South,8.1,-,N/A,,Clear,170,2013-11-28 11:55:00
6:15 AM,21.2,10.4,63,30.31,10.0,South,5.8,-,N/A,,Clear,170,2013-11-28 12:15:00
6:35 AM,21.2,10.4,63,30.31,10.0,South,5.8,-,N/A,,Clear,180,2013-11-28 12:35:00
6:55 AM,21.2,10.4,63,30.31,10.0,South,6.9,-,N/A,,Clear,170,2013-11-28 12:55:00
7:15 AM,21.2,10.4,63,30.31,10.0,South,8.1,-,N/A,,Clear,170,2013-11-28 13:15:00
7:35 AM,23.0,12.2,63,30.31,10.0,South,6.9,-,N/A,,Clear,170,2013-11-28 13:35:00
7:55 AM,24.8,12.2,59,30.31,10.0,South,6.9,-,N/A,,Clear,170,2013-11-28 13:55:00
8:15 AM,26.6,14.0,59,30.32,10.0,South,4.6,-,N/A,,Clear,170,2013-11-28 14:15:00
8:35 AM,28.4,14.0,55,30.32,10.0,South,8.1,-,N/A,,Clear,190,2013-11-28 14:35:00
8:55 AM,28.4,15.8,59,30.33,10.0,South,10.4,-,N/A,,Clear,180,2013-11-28 14:55:00
9:15 AM,30.2,15.8,55,30.33,10.0,South,10.4,-,N/A,,Clear,180,2013-11-28 15:15:00
9:35 AM,33.8,15.8,48,30.33,10.0,South,10.4,-,N/A,,Clear,190,2013-11-28 15:35:00
9:55 AM,35.6,15.8,44,30.33,10.0,SSW,12.7,17.3,N/A,,Clear,210,2013-11-28 15:55:00
10:15 AM,35.6,15.8,44,30.33,10.0,SSW,11.5,-,N/A,,Clear,210,2013-11-28 16:15:00
10:35 AM,37.4,15.8,41,30.32,10.0,South,10.4,-,N/A,,Clear,190,2013-11-28 16:35:00
10:55 AM,39.2,15.8,39,30.31,10.0,South,11.5,-,N/A,,Clear,190,2013-11-28 16:55:00
11:15 AM,42.8,17.6,36,30.31,10.0,SW,8.1,16.1,N/A,,Clear,220,2013-11-28 17:15:00
11:35 AM,42.8,17.6,36,30.30,10.0,WSW,11.5,18.4,N/A,,Clear,250,2013-11-28 17:35:00
11:55 AM,42.8,17.6,36,30.30,10.0,WSW,11.5,-,N/A,,Clear,240,2013-11-28 17:55:00
12:15 PM,44.6,17.6,34,30.30,10.0,WSW,10.4,-,N/A,,Clear,240,2013-11-28 18:15:00
12:35 PM,44.6,19.4,37,30.29,10.0,WSW,12.7,16.1,N/A,,Clear,250,2013-11-28 18:35:00
12:55 PM,46.4,19.4,34,30.29,10.0,SW,4.6,-,N/A,,Clear,230,2013-11-28 18:55:00
1:15 PM,46.4,21.2,37,30.29,10.0,WSW,9.2,16.1,N/A,,Clear,250,2013-11-28 19:15:00
1:35 PM,48.2,21.2,34,30.28,10.0,WSW,10.4,-,N/A,,Clear,240,2013-11-28 19:35:00
1:55 PM,48.2,21.2,34,30.28,10.0,WSW,9.2,16.1,N/A,,Clear,250,2013-11-28 19:55:00
2:15 PM,48.2,21.2,34,30.29,10.0,WSW,10.4,-,N/A,,Clear,240,2013-11-28 20:15:00
2:35 PM,48.2,21.2,34,30.29,10.0,West,6.9,-,N/A,,Clear,260,2013-11-28 20:35:00
2:55 PM,50.0,21.2,32,30.30,10.0,West,6.9,-,N/A,,Clear,260,2013-11-28 20:55:00
3:15 PM,50.0,23.0,35,30.31,10.0,West,5.8,-,N/A,,Clear,260,2013-11-28 21:15:00
3:35 PM,50.0,21.2,32,30.31,10.0,West,4.6,-,N/A,,Clear,270,2013-11-28 21:35:00
3:55 PM,50.0,23.0,35,30.32,10.0,West,6.9,-,N/A,,Clear,280,2013-11-28 21:55:00
4:15 PM,48.2,23.0,37,30.33,10.0,WNW,6.9,-,N/A,,Clear,300,2013-11-28 22:15:00
4:35 PM,46.4,23.0,40,30.34,10.0,WNW,6.9,-,N/A,,Clear,300,2013-11-28 22:35:00
4:55 PM,44.6,21.2,39,30.35,10.0,NNW,4.6,-,N/A,,Clear,330,2013-11-28 22:55:00
5:15 PM,44.6,21.2,39,30.36,10.0,NNW,4.6,-,N/A,,Clear,330,2013-11-28 23:15:00
5:35 PM,42.8,21.2,42,30.37,10.0,NNW,4.6,-,N/A,,Clear,330,2013-11-28 23:35:00
5:55 PM,42.8,21.2,42,30.38,10.0,NNW,4.6,-,N/A,,Clear,340,2013-11-28 23:55:00
6:15 PM,42.8,21.2,42,30.39,10.0,North,4.6,-,N/A,,Clear,350,2013-11-29 00:15:00
6:35 PM,41.0,21.2,45,30.40,10.0,NNW,4.6,-,N/A,,Clear,340,2013-11-29 00:35:00
6:55 PM,39.2,21.2,49,30.41,10.0,NNW,4.6,-,N/A,,Clear,340,2013-11-29 00:55:00
7:15 PM,39.2,21.2,49,30.42,10.0,Calm,Calm,-,N/A,,Clear,0,2013-11-29 01:15:00
7:35 PM,35.6,21.2,56,30.43,10.0,Calm,Calm,-,N/A,,Clear,0,2013-11-29 01:35:00
7:55 PM,33.8,19.4,56,30.43,10.0,Calm,Calm,-,N/A,,Clear,0,2013-11-29 01:55:00
8:15 PM,32.0,19.4,60,30.44,10.0,Calm,Calm,-,N/A,,Clear,0,2013-11-29 02:15:00
8:35 PM,33.8,23.0,65,30.44,10.0,Calm,Calm,-,N/A,,Clear,0,2013-11-29 02:35:00
8:55 PM,30.2,19.4,64,30.45,10.0,Calm,Calm,-,N/A,,Clear,0,2013-11-29 02:55:00
9:15 PM,26.6,19.4,74,30.45,10.0,NNW,5.8,-,N/A,,Clear,340,2013-11-29 03:15:00
9:35 PM,32.0,21.2,64,30.46,10.0,North,4.6,-,N/A,,Clear,350,2013-11-29 03:35:00
9:55 PM,30.2,19.4,64,30.46,10.0,Calm,Calm,-,N/A,,Clear,0,2013-11-29 03:55:00
10:15 PM,26.6,17.6,69,30.47,10.0,Calm,Calm,-,N/A,,Clear,0,2013-11-29 04:15:00
10:35 PM,28.4,21.2,74,30.48,10.0,Calm,Calm,-,N/A,,Clear,0,2013-11-29 04:35:00
10:55 PM,28.4,21.2,74,30.48,10.0,Calm,Calm,-,N/A,,Clear,0,2013-11-29 04:55:00
11:15 PM,26.6,21.2,80,30.49,10.0,Calm,Calm,-,N/A,,Clear,0,2013-11-29 05:15:00
11:35 PM,26.6,19.4,74,30.49,10.0,Calm,Calm,-,N/A,,Clear,0,2013-11-29 05:35:00
11:55 PM,24.8,19.4,80,30.50,10.0,Calm,Calm,-,N/A,,Clear,0,2013-11-29 05:55:00